Find Starlink 30585

NORAD ID: 58063 Int'l Des: 2023-158 Owner: SPXS Country: US Constellation: starlink operational
LEOCIRCULAR

当前视图

正在加载3D地球...

About Starlink 30585

Starlink 30585 (NORAD 58063) is a starlink constellation satellite (v2 mini) launched Oct 13, 2023 by SPXS of US. It operates in LEO, CIRCULAR orbit with a mass of 730.00 kg.

关于 Starlink 30585

正在加载描述...

即将过境

Passes for default location (London). Set your location on the main map for personalized predictions.

高度历史

Loading altitude history...

两行轨道根数

1 58063U 23158N 26177.91440704 -.00002285 00000-0 -73516-4 0 9998
2 58063 43.0032 130.2812 0001588 268.8199 91.2471 15.27580521150273
Epoch: Jun 26, 2026 • Age: 23 hours

当前状态

高度 495.2 km
速度 7.62 km/s
星下点 -42.70°S, 152.68°E
发射日期 Oct 13, 2023
运行时间 2.7 years
类型 internet

技术详情

分类 Payload
质量 730.00 kg
干质量 700.00 kg
总质量 730.00 kg
长度 0.30 m
直径 4.10 m
跨度 29.00 m
形状 Box + pan
制造商 SPXS
平台类型 Starlink V2M
阶段状态 In Orbit
所有者/国家 SPXS/US

Most Searched